FDX375A RODN-KOAK

Flight info

Callsign FDX375A
Flight time N/A
Altitude 31000
Route HIVAS DCT SHIBK Y57 YULIA/N0498F310 Y89 GUPER Y81 MOE A590 KAGIS DCT ALGES DCT KALNA DCT PUGAL/N0484F330 A590 POWAL R451 ADK DCT LONOK/N0479F350 DCT DUT DCT HOLIM DCT 52N150W 48N140W 42N130W DCT PAINT PIRAT3
Aircraft MD11/H-SDE1E2E3FGHIJ2J3J4J5M1RWXY/LB1D1

Departure

Time 2026-04-21 00:46
Airport Kadena Air Base (RODN)

Arrival

Time N/A
Airport San Francisco Bay Oakland International Airport (KOAK)
Time Latitude Longitude Altitude Speed Heading
2026-04-21 00:18 26.35106 127.76891 157 ft 0 kts 160°
2026-04-21 00:40 26.35102 127.76892 157 ft 2 kts 160°
2026-04-21 00:40 26.35078 127.76901 159 ft 4 kts 168°
2026-04-21 00:40 26.35037 127.76866 158 ft 13 kts 237°
2026-04-21 00:40 26.34992 127.76747 151 ft 19 kts 250°
2026-04-21 00:41 26.34930 127.76603 143 ft 22 kts 229°
2026-04-21 00:41 26.34838 127.76482 137 ft 21 kts 230°
2026-04-21 00:41 26.34742 127.76350 131 ft 23 kts 232°
2026-04-21 00:41 26.34657 127.76234 125 ft 18 kts 230°
2026-04-21 00:42 26.34569 127.76115 119 ft 21 kts 231°
2026-04-21 00:42 26.34481 127.75990 112 ft 18 kts 231°
2026-04-21 00:42 26.34393 127.75871 105 ft 21 kts 230°
2026-04-21 00:42 26.34316 127.75767 100 ft 17 kts 231°
2026-04-21 00:43 26.34264 127.75684 95 ft 13 kts 256°
2026-04-21 00:43 26.34322 127.75607 91 ft 11 kts 320°
2026-04-21 00:43 26.34378 127.75554 90 ft 9 kts 320°
2026-04-21 00:43 26.34419 127.75534 89 ft 4 kts 22°
2026-04-21 00:44 26.34435 127.75547 90 ft 0 kts 50°
2026-04-21 00:45 26.34438 127.75551 90 ft 5 kts 50°
2026-04-21 00:45 26.34581 127.75748 100 ft 62 kts 51°
2026-04-21 00:45 26.34983 127.76299 124 ft 117 kts 52°
2026-04-21 00:45 26.35602 127.77143 158 ft 164 kts 50°
2026-04-21 00:46 26.36426 127.78260 153 ft 203 kts 49°
2026-04-21 00:46 26.37336 127.79481 578 ft 201 kts 50°
2026-04-21 00:46 26.38148 127.80718 1101 ft 198 kts 54°
2026-04-21 00:46 26.38940 127.81964 1551 ft 202 kts 49°
2026-04-21 00:47 26.39887 127.83199 1722 ft 219 kts 47°
2026-04-21 00:47 26.40943 127.84526 1826 ft 236 kts 47°
2026-04-21 00:47 26.41956 127.86021 2055 ft 248 kts 58°
2026-04-21 00:47 26.42747 127.87762 2566 ft 253 kts 65°
2026-04-21 00:48 26.43380 127.89593 3096 ft 257 kts 69°
2026-04-21 00:48 26.43966 127.91499 3669 ft 261 kts 69°
2026-04-21 00:48 26.44550 127.93402 4234 ft 262 kts 69°
2026-04-21 00:48 26.45167 127.95311 4802 ft 264 kts 68°
2026-04-21 00:49 26.45818 127.97231 5339 ft 267 kts 67°
2026-04-21 00:49 26.46533 127.99139 5855 ft 269 kts 62°
2026-04-21 00:49 26.47452 128.00957 6379 ft 270 kts 54°
2026-04-21 00:49 26.48606 128.02628 6869 ft 272 kts 47°
2026-04-21 00:50 26.49882 128.04178 7328 ft 276 kts 45°
2026-04-21 00:50 26.51232 128.05737 7770 ft 280 kts 45°
2026-04-21 00:50 26.52574 128.07312 8204 ft 284 kts 46°
2026-04-21 00:50 26.53933 128.08960 8664 ft 287 kts 47°
2026-04-21 00:51 26.55279 128.10622 9101 ft 291 kts 47°
2026-04-21 00:51 26.56626 128.12303 9539 ft 293 kts 47°
2026-04-21 00:51 26.57995 128.14014 9950 ft 296 kts 47°
2026-04-21 00:51 26.59375 128.15733 10322 ft 301 kts 47°
2026-04-21 00:52 26.60792 128.17490 10698 ft 304 kts 47°
2026-04-21 00:52 26.62240 128.19279 10867 ft 317 kts 47°
2026-04-21 00:52 26.63744 128.21137 11006 ft 331 kts 47°
2026-04-21 00:52 26.65311 128.23071 11428 ft 338 kts 47°
2026-04-21 00:53 26.66924 128.25063 11611 ft 356 kts 47°
2026-04-21 00:53 26.68624 128.27162 11727 ft 375 kts 47°
2026-04-21 00:53 26.70415 128.29372 11834 ft 395 kts 47°
2026-04-21 00:53 26.72319 128.31718 11949 ft 414 kts 47°
2026-04-21 00:54 26.74295 128.34157 12163 ft 430 kts 47°
2026-04-21 00:54 26.76306 128.36638 12671 ft 438 kts 47°
2026-04-21 00:54 26.78360 128.39171 13246 ft 443 kts 47°
2026-04-21 00:54 26.80445 128.41740 13810 ft 449 kts 47°
2026-04-21 00:55 26.81990 128.43643 14258 ft 451 kts 47°
2026-04-21 00:55 26.84093 128.46230 14833 ft 456 kts 47°
2026-04-21 00:55 26.86238 128.48866 15393 ft 461 kts 47°
2026-04-21 00:55 26.88400 128.51524 15960 ft 465 kts 46°
2026-04-21 00:56 26.90575 128.54202 16480 ft 469 kts 46°
2026-04-21 00:56 26.92797 128.56938 16998 ft 474 kts 46°
2026-04-21 00:56 26.95040 128.59689 17523 ft 479 kts 46°
2026-04-21 00:56 26.97290 128.62451 18049 ft 483 kts 46°
2026-04-21 00:57 26.99539 128.65219 18506 ft 488 kts 46°
2026-04-21 00:57 27.01838 128.68050 18978 ft 493 kts 46°
2026-04-21 00:57 27.04159 128.70892 19430 ft 497 kts 46°
2026-04-21 00:57 27.06486 128.73761 19936 ft 500 kts 46°
2026-04-21 00:58 27.08837 128.76706 20367 ft 505 kts 47°
2026-04-21 00:58 27.11181 128.79665 20814 ft 509 kts 46°
2026-04-21 00:58 27.13510 128.82605 21279 ft 512 kts 46°
2026-04-21 00:58 27.15902 128.85616 21707 ft 516 kts 46°
2026-04-21 00:59 27.18281 128.88597 22107 ft 520 kts 46°
2026-04-21 00:59 27.20722 128.91650 22532 ft 524 kts 46°
2026-04-21 00:59 27.23147 128.94687 22911 ft 528 kts 46°
2026-04-21 00:59 27.25595 128.97759 23353 ft 531 kts 46°
2026-04-21 01:00 27.28073 129.00862 23792 ft 533 kts 46°
2026-04-21 01:00 27.30567 129.03986 24222 ft 536 kts 46°
2026-04-21 01:00 27.33067 129.07115 24615 ft 540 kts 45°
2026-04-21 01:00 27.35547 129.10214 25029 ft 542 kts 45°
2026-04-21 01:01 27.38100 129.13408 25422 ft 545 kts 45°
2026-04-21 01:01 27.40635 129.16582 25831 ft 548 kts 45°
2026-04-21 01:01 27.43177 129.19760 26238 ft 550 kts 45°
2026-04-21 01:01 27.45748 129.22966 26620 ft 552 kts 45°
2026-04-21 01:02 27.48304 129.26158 27081 ft 552 kts 45°
2026-04-21 01:02 27.50879 129.29384 27628 ft 551 kts 44°
2026-04-21 01:02 27.53415 129.32550 28204 ft 549 kts 44°
2026-04-21 01:02 27.55970 129.35730 28736 ft 547 kts 44°
2026-04-21 01:03 27.58531 129.38924 29309 ft 545 kts 44°
2026-04-21 01:03 27.61055 129.42079 29826 ft 544 kts 44°
2026-04-21 01:03 27.63537 129.45226 30281 ft 543 kts 45°
2026-04-21 01:03 27.66046 129.48433 30719 ft 543 kts 45°
2026-04-21 01:04 27.68533 129.51625 31049 ft 541 kts 45°
2026-04-21 01:04 27.71017 129.54808 31016 ft 539 kts 45°
2026-04-21 01:04 27.75949 129.61087 31058 ft 539 kts 45°
2026-04-21 01:05 27.80950 129.67454 31039 ft 540 kts 45°
2026-04-21 01:05 27.85932 129.73804 31037 ft 541 kts 45°
2026-04-21 01:06 27.90892 129.80115 31038 ft 541 kts 45°
2026-04-21 01:06 27.95888 129.86465 31032 ft 541 kts 45°
2026-04-21 01:07 28.00876 129.92804 31028 ft 540 kts 45°
2026-04-21 01:07 28.05883 129.99158 31033 ft 541 kts 45°
2026-04-21 01:08 28.10902 130.05534 31035 ft 541 kts 45°
2026-04-21 01:08 28.15924 130.11894 31033 ft 541 kts 45°
2026-04-21 01:09 28.20879 130.18291 31036 ft 541 kts 45°
2026-04-21 01:09 28.25787 130.24703 31033 ft 542 kts 45°
2026-04-21 01:10 28.30751 130.31142 31037 ft 542 kts 45°
2026-04-21 01:10 28.35730 130.37589 31032 ft 542 kts 45°
2026-04-21 01:11 28.40660 130.43977 31036 ft 541 kts 45°
2026-04-21 01:11 28.45619 130.50388 31036 ft 540 kts 45°
2026-04-21 01:12 28.50573 130.56798 31037 ft 540 kts 45°
2026-04-21 01:12 28.55537 130.63207 31033 ft 540 kts 45°
2026-04-21 01:13 28.60512 130.69638 31026 ft 540 kts 45°
2026-04-21 01:13 28.65471 130.76030 31019 ft 540 kts 45°
2026-04-21 01:14 28.70433 130.82434 31020 ft 540 kts 45°
2026-04-21 01:14 28.75348 130.88887 31015 ft 539 kts 45°
2026-04-21 01:15 28.80212 130.95335 31017 ft 540 kts 45°
2026-04-21 01:15 28.85099 131.01790 31021 ft 539 kts 45°
2026-04-21 01:16 28.90017 131.08272 31021 ft 539 kts 45°
2026-04-21 01:16 28.94905 131.14710 31018 ft 539 kts 45°
2026-04-21 01:17 28.99839 131.21211 31021 ft 541 kts 45°
2026-04-21 01:17 29.04761 131.27683 31021 ft 540 kts 45°
2026-04-21 01:18 29.09680 131.34154 31029 ft 540 kts 45°
2026-04-21 01:18 29.14606 131.40614 31027 ft 542 kts 45°
2026-04-21 01:19 29.19536 131.47102 31028 ft 542 kts 44°
2026-04-21 01:19 29.24514 131.53619 31033 ft 543 kts 44°
2026-04-21 01:20 29.29437 131.60165 31032 ft 544 kts 45°
2026-04-21 01:20 29.34321 131.66751 31028 ft 545 kts 45°
2026-04-21 01:21 29.39251 131.73334 31018 ft 545 kts 45°
2026-04-21 01:21 29.44178 131.79929 31021 ft 546 kts 45°
2026-04-21 01:22 29.49132 131.86554 31030 ft 547 kts 45°
2026-04-21 01:22 29.54091 131.93158 31027 ft 546 kts 45°
2026-04-21 01:23 29.59039 131.99776 31030 ft 547 kts 45°
2026-04-21 01:23 29.63990 132.06360 31029 ft 547 kts 44°
2026-04-21 01:24 29.68934 132.12978 31024 ft 548 kts 46°
2026-04-21 01:24 29.73769 132.19809 31021 ft 550 kts 46°
2026-04-21 01:25 29.78523 132.26607 31012 ft 549 kts 46°
2026-04-21 01:25 29.83341 132.33437 31011 ft 550 kts 46°
2026-04-21 01:26 29.88173 132.40274 31004 ft 550 kts 46°
2026-04-21 01:26 29.92989 132.47089 31011 ft 549 kts 46°
2026-04-21 01:27 29.97794 132.53880 31000 ft 549 kts 46°
2026-04-21 01:27 30.02632 132.60712 31007 ft 551 kts 46°
2026-04-21 01:28 30.07497 132.67577 30988 ft 551 kts 46°
2026-04-21 01:28 30.12327 132.74387 30988 ft 551 kts 46°
2026-04-21 01:29 30.17196 132.81249 31000 ft 551 kts 46°
2026-04-21 01:29 30.22028 132.88052 31004 ft 551 kts 46°
2026-04-21 01:30 30.26821 132.94975 31010 ft 554 kts 47°
2026-04-21 01:30 30.31607 133.01944 31015 ft 554 kts 46°
2026-04-21 01:31 30.36418 133.08881 31013 ft 554 kts 46°
2026-04-21 01:31 30.41252 133.15848 31012 ft 555 kts 46°
2026-04-21 01:32 30.46085 133.22823 31015 ft 555 kts 46°
2026-04-21 01:32 30.50911 133.29767 31013 ft 556 kts 46°
2026-04-21 01:33 30.55745 133.36728 31012 ft 557 kts 46°
2026-04-21 01:33 30.60616 133.43715 31014 ft 556 kts 46°
2026-04-21 01:34 30.65442 133.50664 31009 ft 555 kts 45°
2026-04-21 01:34 30.70298 133.57617 31008 ft 557 kts 45°
2026-04-21 01:35 30.75172 133.64645 30996 ft 557 kts 46°
2026-04-21 01:35 30.79968 133.71672 30984 ft 558 kts 46°
2026-04-21 01:36 30.84848 133.78691 30986 ft 557 kts 46°
2026-04-21 01:36 30.89658 133.85716 30982 ft 559 kts 47°
2026-04-21 01:37 30.94442 133.92841 30983 ft 561 kts 47°
2026-04-21 01:37 30.99270 133.99997 30978 ft 561 kts 46°
2026-04-21 01:38 31.04114 134.07144 30983 ft 562 kts 46°
2026-04-21 01:38 31.08943 134.14284 30979 ft 562 kts 46°
2026-04-21 01:39 31.13782 134.21425 30982 ft 563 kts 46°
2026-04-21 01:39 31.18610 134.28536 30980 ft 562 kts 46°
2026-04-21 01:40 31.23478 134.35716 30982 ft 562 kts 46°
2026-04-21 01:40 31.28323 134.42825 30975 ft 562 kts 46°
2026-04-21 01:41 31.33182 134.49977 30982 ft 563 kts 46°
2026-04-21 01:41 31.38027 134.57188 30982 ft 564 kts 47°
2026-04-21 01:42 31.42798 134.64401 30984 ft 563 kts 46°
2026-04-21 01:42 31.47618 134.71632 30979 ft 563 kts 47°
2026-04-21 01:43 31.52402 134.78821 30975 ft 562 kts 47°
2026-04-21 01:43 31.57208 134.86018 30981 ft 563 kts 46°
2026-04-21 01:44 31.62048 134.93271 30994 ft 564 kts 47°
2026-04-21 01:44 31.66887 135.00517 30987 ft 564 kts 46°
2026-04-21 01:45 31.71647 135.07822 30991 ft 566 kts 49°
2026-04-21 01:45 31.76075 135.15448 30995 ft 569 kts 52°
2026-04-21 01:46 31.80333 135.23323 30987 ft 571 kts 53°
2026-04-21 01:46 31.84605 135.31161 30985 ft 569 kts 52°
2026-04-21 01:47 31.88890 135.38963 30986 ft 570 kts 52°
2026-04-21 01:47 31.93143 135.46753 30985 ft 570 kts 52°
2026-04-21 01:48 31.97454 135.54582 30978 ft 570 kts 52°
2026-04-21 01:48 32.01757 135.62433 30975 ft 572 kts 52°
2026-04-21 01:49 32.06070 135.70261 30946 ft 571 kts 52°
2026-04-21 01:49 32.10397 135.78128 30950 ft 572 kts 52°
2026-04-21 01:50 32.14722 135.85976 30952 ft 572 kts 52°
2026-04-21 01:50 32.19044 135.93800 30953 ft 572 kts 52°
2026-04-21 01:51 32.23360 136.01708 30951 ft 573 kts 52°
2026-04-21 01:51 32.27640 136.09636 30961 ft 573 kts 52°
2026-04-21 01:52 32.34124 136.21489 30952 ft 574 kts 53°
2026-04-21 01:53 32.38342 136.29442 30962 ft 574 kts 53°
2026-04-21 01:53 32.42580 136.37413 30958 ft 573 kts 53°
2026-04-21 01:54 32.46840 136.45371 30953 ft 573 kts 52°
2026-04-21 01:54 32.51100 136.53337 30959 ft 574 kts 52°
2026-04-21 01:55 32.55368 136.61295 30957 ft 575 kts 52°
2026-04-21 01:55 32.59648 136.69278 30940 ft 575 kts 52°
2026-04-21 01:56 32.63935 136.77260 30941 ft 575 kts 52°
2026-04-21 01:56 32.68230 136.85245 30940 ft 575 kts 52°
2026-04-21 01:57 32.72511 136.93195 30945 ft 575 kts 52°
2026-04-21 01:57 32.76771 137.01227 30947 ft 577 kts 53°
2026-04-21 01:58 32.80979 137.09363 30956 ft 578 kts 53°
2026-04-21 01:58 32.85199 137.17484 30950 ft 577 kts 53°
2026-04-21 01:59 32.89415 137.25534 30956 ft 577 kts 53°
2026-04-21 01:59 32.93641 137.33629 30959 ft 577 kts 53°
2026-04-21 02:00 32.97875 137.41719 30956 ft 577 kts 53°
2026-04-21 02:00 33.02122 137.49812 30957 ft 577 kts 53°
2026-04-21 02:01 33.06371 137.57916 30953 ft 577 kts 53°
2026-04-21 02:01 33.10605 137.65955 30957 ft 576 kts 53°
2026-04-21 02:02 33.14883 137.74087 30939 ft 577 kts 53°
2026-04-21 02:02 33.19107 137.82147 30941 ft 578 kts 54°
2026-04-21 02:03 33.23293 137.90338 30943 ft 578 kts 54°
2026-04-21 02:03 33.27456 137.98500 30948 ft 577 kts 54°
2026-04-21 02:04 33.31667 138.06653 30958 ft 577 kts 54°
2026-04-21 02:04 33.35847 138.14812 30945 ft 577 kts 54°
2026-04-21 02:05 33.40056 138.22966 30940 ft 576 kts 54°
2026-04-21 02:05 33.44231 138.31088 30940 ft 575 kts 54°
2026-04-21 02:06 33.48428 138.39188 30942 ft 576 kts 54°
2026-04-21 02:06 33.52557 138.47380 30935 ft 576 kts 55°
2026-04-21 02:07 33.56704 138.55635 30930 ft 576 kts 54°
2026-04-21 02:07 33.60850 138.63827 30928 ft 576 kts 54°
2026-04-21 02:08 33.64986 138.72000 30912 ft 575 kts 55°
2026-04-21 02:08 33.69135 138.80176 30911 ft 576 kts 54°
2026-04-21 02:09 33.73288 138.88370 30907 ft 575 kts 55°
2026-04-21 02:09 33.77478 138.96578 30907 ft 576 kts 55°
2026-04-21 02:10 33.81585 139.04834 30904 ft 577 kts 55°
2026-04-21 02:10 33.85658 139.13098 30911 ft 577 kts 55°
2026-04-21 02:11 33.89780 139.21364 30902 ft 578 kts 55°
2026-04-21 02:11 33.93885 139.29634 30902 ft 578 kts 55°
2026-04-21 02:12 33.98004 139.37892 30893 ft 577 kts 54°
2026-04-21 02:12 34.02123 139.46140 30884 ft 576 kts 55°
2026-04-21 02:13 34.06302 139.54387 30880 ft 575 kts 52°
2026-04-21 02:13 34.10831 139.62277 30881 ft 573 kts 49°
2026-04-21 02:14 34.15519 139.70016 30864 ft 573 kts 50°
2026-04-21 02:14 34.20185 139.77823 30870 ft 574 kts 50°
2026-04-21 02:15 34.24827 139.85629 30871 ft 573 kts 50°
2026-04-21 02:15 34.29473 139.93414 30877 ft 574 kts 50°
2026-04-21 02:16 34.34157 140.01239 30876 ft 574 kts 50°
2026-04-21 02:16 34.38858 140.09084 30867 ft 575 kts 50°
2026-04-21 02:17 34.43527 140.16869 30860 ft 575 kts 50°
2026-04-21 02:17 34.48220 140.24693 31489 ft 574 kts 50°
2026-04-21 02:17 34.50582 140.28622 31954 ft 573 kts 49°
2026-04-21 02:18 34.52922 140.32497 32373 ft 572 kts 49°
2026-04-21 02:18 34.55251 140.36353 32756 ft 571 kts 49°
2026-04-21 02:18 34.57599 140.40262 32852 ft 570 kts 49°
2026-04-21 02:19 34.62237 140.48001 32853 ft 567 kts 49°
2026-04-21 02:19 34.66809 140.55823 32873 ft 570 kts 50°
2026-04-21 02:20 34.71393 140.63654 32867 ft 571 kts 49°
2026-04-21 02:20 34.76030 140.71506 32855 ft 570 kts 50°
2026-04-21 02:21 34.80611 140.79297 32857 ft 571 kts 50°
2026-04-21 02:21 34.85250 140.87143 32844 ft 570 kts 50°
2026-04-21 02:22 34.89870 140.94949 32846 ft 570 kts 49°
2026-04-21 02:22 34.94480 141.02773 32842 ft 572 kts 50°
2026-04-21 02:23 34.99034 141.10724 32832 ft 572 kts 51°
2026-04-21 02:23 35.03582 141.18672 32841 ft 573 kts 50°
2026-04-21 02:24 35.08153 141.26613 32837 ft 573 kts 50°
2026-04-21 02:24 35.12727 141.34537 32850 ft 573 kts 50°
2026-04-21 02:25 35.17323 141.42502 32840 ft 573 kts 50°
2026-04-21 02:25 35.21897 141.50429 32847 ft 573 kts 50°
2026-04-21 02:26 35.26495 141.58368 32857 ft 573 kts 50°
2026-04-21 02:26 35.31111 141.66347 32851 ft 574 kts 50°
2026-04-21 02:27 35.35716 141.74284 32834 ft 575 kts 50°
2026-04-21 02:27 35.40331 141.82307 32838 ft 576 kts 51°
2026-04-21 02:28 35.44827 141.90376 32848 ft 576 kts 51°